[Date Prev][Date Next][Thread Prev][Thread Next] - [Date Index][Thread Index][Author Index]

2 Line ISS Keps 7-23



ISS
1 25544U 98067A   04205.38290534  .00017922  00000-0  15034-3 0  2849
2 25544  51.6316 141.0773 0006289  37.4034  59.6224 15.69998869324000
----
Via the sarex mailing list at AMSAT.ORG courtesy of AMSAT-NA.
To unsubscribe, send "unsubscribe sarex" to Majordomo@amsat.org



AMSAT Top AMSAT Home